Home > Weather > Gander > Past weeks

Flag for Canada Past Weather in Gander, Newfoundland and Labrador, Canada — Yesterday and Last 2 Weeks

Now
63 °F

Broken clouds.


Feels Like: 63 °F
Forecast: 38 / 60 °F
Wind: 7 mph from Southwest

Location: Gander Int. Airport

Current Time: May 30, 2016 at 12:05:29 PM

Latest Report: May 30, 2016 at 11:30 AM


Visibility: 20 mi

Pressure: 30.15 "Hg

Humidity: 49%

Dew Point: 43 °F

Location of GanderLocation

Past Weather in Gander — Graph

°F

Gander Temperature Yesterday

Maximum temperature yesterday: 54 °F (at 4:30 PM)
Minimum temperature yesterday: 32 °F (at 4:30 AM)
Average temperature yesterday: 40 °F

High & Low Weather Summary for the Past Weeks

 TemperatureHumidityPressure
High75 °F (May 21, 4:30 PM)100% (May 16, 5:30 AM)30.33 "Hg (May 16, 5:30 AM)
Low32 °F (May 29, 4:30 AM)26% (May 20, 2:30 PM)29.52 "Hg (May 17, 3:30 PM)
Average47 °F75%29.97 "Hg
* Reported May 15 10:30 AM — May 30 10:30 AM, Gander, Weather by CustomWeather, © 2016

Note: Actual official high and low records may vary slightly from our data, if they occured in-between our weather recording intervals... More about our weather records

Advertising

Gander Weather History for the Previous 24 Hours

Scroll right to see more
 ConditionsComfort  
Time TempWeatherWind HumidityBarometerVisibility
10:30 AM
Mon, May 30
59 °FBroken clouds.8 mph51%30.16 "Hg20 mi
9:30 AM54 °FBroken clouds.9 mph72%30.19 "Hg20 mi
8:30 AM48 °FBroken clouds.9 mph87%30.19 "Hg20 mi
7:30 AM45 °FPartly sunny.9 mph87%30.20 "Hg20 mi
6:30 AM39 °FBroken clouds.5 mph93%30.21 "Hg20 mi
5:30 AM36 °FPartly cloudy.7 mph93%30.20 "Hg20 mi
4:30 AM36 °FPassing clouds.5 mph93%30.20 "Hg20 mi
3:30 AM36 °FPassing clouds.6 mph93%30.22 "Hg20 mi
2:30 AM36 °FPassing clouds.5 mph93%30.22 "Hg20 mi
1:30 AM36 °FPassing clouds.7 mph93%30.23 "Hg20 mi
12:30 AM37 °FPartly cloudy.7 mph93%30.23 "Hg20 mi
11:30 PM
Sun, May 29
39 °FPassing clouds.7 mph87%30.23 "Hg20 mi
10:30 PM39 °FSprinkles. Mostly cloudy.8 mph87%30.24 "Hg20 mi
9:30 PM41 °FPartly sunny.8 mph81%30.23 "Hg20 mi
8:30 PM45 °FPartly sunny.10 mph76%30.22 "Hg20 mi
7:30 PM50 °FBroken clouds.7 mph62%30.21 "Hg20 mi
6:30 PM52 °FBroken clouds.7 mph58%30.20 "Hg20 mi
5:30 PM52 °FBroken clouds.10 mph58%30.20 "Hg20 mi
4:30 PM54 °FBroken clouds.12 mph58%30.20 "Hg20 mi
3:30 PM52 °FScattered clouds.3 mph54%30.21 "Hg20 mi
2:30 PM48 °FScattered clouds.No wind66%30.21 "Hg20 mi
1:30 PM45 °FScattered clouds.5 mph76%30.22 "Hg20 mi
12:30 PM41 °FPartly sunny.No wind76%30.24 "Hg20 mi
Weather by CustomWeather, © 2016

See weather overviewHow to use our weather pages